MDT,Max TemperatureF,Mean TemperatureF,Min TemperatureF,Max Dew PointF,MeanDew PointF,Min DewpointF,Max Humidity, Mean Humidity, Min Humidity, Max Sea Level PressureIn, Mean Sea Level PressureIn, Min Sea Level PressureIn, Max VisibilityMiles, Mean VisibilityMiles, Min VisibilityMiles, Max Wind SpeedMPH, Mean Wind SpeedMPH, Max Gust SpeedMPH,PrecipitationIn, CloudCover, Events, WindDirDegrees
2010-10-1,78,61,44,48,40,35,86,58,30,30.19,30.13,30.07,10,10,10,15,5,20,0.00,0,,22
2010-10-2,77,58,38,49,44,37,100,66,31,30.16,30.06,29.96,10,10,5,8,1,10,0.00,0,,307
2010-10-3,74,58,41,51,45,40,93,64,35,29.97,29.90,29.84,10,10,10,10,4,14,T,1,Rain,297
2010-10-4,60,54,48,54,50,46,100,90,80,30.00,29.90,29.86,10,6,0,10,4,12,0.08,6,Fog-Rain,183
2010-10-5,65,52,39,51,46,39,100,72,44,30.40,30.18,30.02,10,5,0,6,1,9,0.00,5,Fog,220
2010-10-6,67,50,32,48,37,30,100,72,44,30.39,30.31,30.06,10,4,0,12,2,14,0.00,1,Fog,313
2010-10-7,60,49,37,49,40,36,100,84,67,30.06,30.00,29.97,10,4,0,12,1,13,T,3,Fog-Rain,300
2010-10-8,58,49,39,50,44,37,100,86,71,30.22,30.07,30.01,10,6,0,15,4,55,T,7,Fog,170
2010-10-9,63,52,41,48,46,41,96,74,52,30.30,30.26,30.21,10,10,10,13,2,20,0.00,6,,179
2010-10-10,63,57,51,51,49,48,89,77,64,30.24,30.12,29.98,10,10,5,14,5,17,0.03,8,Rain,191
2010-10-11,56,44,31,51,34,26,86,61,35,30.43,30.21,30.00,10,10,10,21,8,29,T,5,,218
2010-10-12,55,40,25,33,28,23,92,64,35,30.55,30.49,30.45,10,10,10,13,4,18,0.00,0,,167
2010-10-13,60,43,26,35,30,25,100,67,33,30.48,30.40,30.31,10,10,9,7,1,10,0.00,0,,282
2010-10-14,63,43,23,36,29,21,100,70,39,30.32,30.20,30.03,10,7,0,6,1,8,0.00,1,Fog,38
2010-10-15,60,42,23,34,23,10,92,55,18,30.30,30.12,29.98,10,10,8,23,7,35,0.00,2,,245
2010-10-16,55,37,19,28,22,17,88,58,28,30.29,30.21,30.06,10,10,10,16,1,39,0.00,0,,165
2010-10-17,55,37,18,27,23,17,91,59,26,30.30,30.25,30.17,10,10,10,7,1,14,0.00,0,,143
2010-10-18,54,37,19,32,26,18,100,71,41,30.35,30.28,30.21,10,10,9,13,2,16,0.00,0,,167
2010-10-19,59,40,21,31,25,19,96,63,30,30.33,30.25,30.18,10,8,2,15,3,20,0.00,0,,190
2010-10-20,62,42,22,34,28,21,92,64,35,30.23,30.14,30.00,10,10,8,8,1,13,0.00,0,,345
2010-10-21,63,43,23,36,29,21,100,67,34,30.06,29.98,29.85,10,8,2,7,1,9,0.00,0,,258
2010-10-22,56,41,26,41,32,23,100,77,54,29.97,29.91,29.88,10,10,6,8,1,8,0.00,2,,208
2010-10-23,52,39,26,41,32,25,100,81,61,29.89,29.84,29.79,10,6,0,9,2,31,T,5,Fog-Rain,359
2010-10-24,48,44,39,43,40,34,100,85,70,29.77,29.46,29.33,10,9,5,15,6,20,0.13,8,Rain,195
2010-10-25,45,41,37,37,34,32,85,75,65,29.71,29.62,29.40,10,10,9,15,8,18,0.03,8,Rain,184
2010-10-26,39,38,37,36,34,32,92,86,79,30.02,29.80,29.67,10,10,7,14,9,17,0.06,8,Rain,159
2010-10-27,47,36,24,35,32,25,100,77,53,30.33,30.22,30.04,10,10,5,10,4,15,0.00,6,,178
2010-10-28,45,35,24,37,29,21,100,79,58,30.30,30.22,30.08,10,8,0,18,1,25,0.06,5,Fog-Rain,335
2010-10-29,45,40,35,40,37,34,100,92,83,30.11,30.04,29.99,10,7,1,9,3,12,0.09,8,Rain,200
2010-10-30,49,41,33,38,35,32,100,83,65,30.09,29.99,29.88,10,4,0,6,1,8,0.00,7,Fog,323
2010-10-31,53,43,33,45,38,30,93,76,59,30.28,30.01,29.88,10,7,2,14,4,21,0.05,7,Rain,204